Location: Muenchen
(48.1800°N, 11.5800°E)
Time: 16:07:21
(UTC+01:00)

Cosmos 1455 - Visible Passes

Search period start: 30 October 2014 00:00
Search period end: 09 November 2014 00:00
Orbit: 516 x 543 km, 82.5° (Epoch: 30 October)

Date Brightness Start Highest point End Pass type
(mag) Time Alt. Az. Time Alt. Az. Time Alt. Az.
30 Oct 3.4 05:31:40 10° N 05:35:29 46° ENE 05:39:17 10° SSE visible
30 Oct 3.8 17:53:41 10° SE 17:56:04 16° E 17:57:54 12° NE visible
30 Oct 3.3 19:28:02 10° SSW 19:31:42 43° WNW 19:33:21 27° NNW visible
31 Oct 3.5 05:21:04 10° N 05:24:51 43° ENE 05:28:37 10° SSE visible
31 Oct 3.8 17:43:14 10° ESE 17:45:27 15° E 17:47:41 10° NE visible
31 Oct 3.2 19:17:21 10° SSW 19:21:03 46° WNW 19:24:48 10° N visible
01 Nov 3.7 05:10:27 10° N 05:14:12 40° ENE 05:17:56 10° SE visible
01 Nov 3.9 17:32:48 10° ESE 17:34:50 14° E 17:36:53 10° NE visible
01 Nov 3.1 19:06:40 10° SSW 19:10:23 50° WNW 19:14:11 10° N visible
02 Nov 3.8 04:59:49 10° N 05:03:32 37° ENE 05:07:14 10° SE visible
02 Nov 2.9 18:55:58 10° SSW 18:59:43 54° WNW 19:03:32 10° N visible
03 Nov 3.9 04:49:11 10° N 04:52:51 35° ENE 04:56:30 10° SE visible
03 Nov 3.6 06:25:40 10° NW 06:28:38 21° W 06:31:36 10° SW visible
03 Nov 2.8 18:45:15 10° SSW 18:49:02 58° WNW 18:52:53 10° N visible
04 Nov 4.0 04:38:33 10° N 04:42:09 33° ENE 04:45:45 10° SE visible
04 Nov 3.5 06:14:54 10° NW 06:17:59 22° W 06:21:04 10° SW visible
04 Nov 2.6 18:34:32 10° SSW 18:38:20 63° WNW 18:42:13 10° N visible
05 Nov 4.1 04:27:54 10° N 04:31:27 31° ENE 04:35:00 10° SE visible
05 Nov 3.4 06:04:08 10° NW 06:07:19 24° W 06:10:30 10° SW visible
05 Nov 2.5 18:23:49 10° SSW 18:27:38 68° W 18:31:31 10° N visible
06 Nov 4.2 04:17:34 12° NNE 04:20:44 29° ENE 04:24:12 10° SE visible
06 Nov 3.3 05:53:21 10° NNW 05:56:38 25° W 05:59:55 10° SW visible
06 Nov 2.4 18:13:05 10° SSW 18:16:55 74° W 18:20:49 10° N visible
07 Nov 4.3 04:09:05 25° NE 04:10:00 27° ENE 04:13:24 10° SE visible
07 Nov 3.2 05:44:31 22° NW 05:45:56 27° W 05:49:18 10° SSW visible
07 Nov 2.3 18:02:20 10° SSW 18:06:11 80° W 18:10:06 10° N visible
08 Nov 4.6 04:00:29 22° E 04:00:29 22° E 04:02:35 10° SE visible
08 Nov 3.2 05:35:54 27° WSW 05:35:54 27° WSW 05:38:40 10° SSW visible
08 Nov 2.2 17:51:36 10° S 17:55:27 86° W 17:59:22 10° N visible
